Flag for U.S.A. Weather past 2 weeks in Fort Bragg, California, U.S.A.

Now
66 °F

Sunny.


Feels Like: 66 °F
Forecast: 43 / 62 °F
Wind: No wind

Location: Ukiah Municipal

Current Time: Mar 6, 2015 at 1:04:09 PM

Latest Report: Mar 6, 2015 at 11:56 AM


Visibility: 10 mi

Pressure: 30.27 "Hg

Humidity: 34%

Dew point: 37 °F

Location of Fort BraggLocation

Historic Weather in Fort Bragg — Graph

°F

Fort Bragg temperature yesterday

Maximum temperature yesterday: 73 °F (at 3:56 PM)
Minimum temperature yesterday: 35 °F (at 6:56 AM)
Average temperature yesterday: 52 °F

Past Weeks' High & Low Weather Summary

 TemperatureHumidityPressure
High75 °F (Feb 20, 2:56 PM)97% (Feb 20, 6:56 AM)30.38 "Hg (Feb 20, 6:56 AM)
Low30 °F (Feb 24, 6:56 AM)10% (Feb 23, 12:56 PM)29.72 "Hg (Feb 28, 3:56 AM)
Average51 °F61%30.03 "Hg
* Reported Feb 19 11:56 AM — Mar 6 11:56 AM, Fort Bragg, Weather by CustomWeather, © 2015

Note: Actual official high and low records may vary slightly from our data, if they occured in-between our weather recording intervals... More about our weather records

Advertising

Fort Bragg weather history for previous 24 hours

 ConditionsComfort  
Time TempWeatherWind HumidityBarometerVisibility
11:56 AM
Fri, Mar 6
66 °FSunny.No wind34%30.27 "Hg10 mi
10:56 AM61 °FSunny.No wind42%30.30 "Hg10 mi
9:56 AM53 °FSunny.No wind56%30.32 "Hg10 mi
8:56 AM47 °FSunny.No wind69%30.34 "Hg10 mi
7:56 AM41 °FSunny.No wind80%30.33 "Hg10 mi
6:56 AM36 °FSunny.3 mph85%30.33 "Hg10 mi
5:56 AM37 °FClear.No wind82%30.33 "Hg10 mi
4:56 AM37 °FClear.No wind86%30.32 "Hg10 mi
3:56 AM40 °FClear.No wind80%30.31 "Hg10 mi
2:56 AM40 °FClear.No wind80%30.32 "Hg10 mi
1:56 AM43 °FClear.No wind74%30.32 "Hg10 mi
12:56 AM44 °FClear.No wind71%30.32 "Hg10 mi
11:56 PM
Thu, Mar 5
45 °FClear.No wind71%30.32 "Hg10 mi
10:56 PM47 °FClear.No wind69%30.33 "Hg10 mi
9:56 PM49 °FClear.No wind61%30.33 "Hg10 mi
8:56 PM52 °FClear.5 mph57%30.32 "Hg10 mi
7:56 PM54 °FClear.3 mph57%30.31 "Hg10 mi
6:56 PM58 °FClear.3 mph50%30.29 "Hg10 mi
5:56 PM65 °FSunny.5 mph37%30.25 "Hg10 mi
4:56 PM70 °FSunny.3 mph29%30.24 "Hg10 mi
3:56 PM73 °FSunny.No wind24%30.24 "Hg10 mi
2:56 PM71 °FSunny.6 mph26%30.25 "Hg10 mi
1:56 PM69 °FSunny.3 mph25%30.26 "Hg10 mi
Weather by CustomWeather, © 2015

See weather overviewHow to use our weather pages